Flag for Jersey Weather past 2 weeks in Saint Helier, Jersey

Now
45 °F

Passing clouds.


Feels Like: 37 °F
Forecast: 49 / 53 °F
Wind: 18 mph from Northwest

Location: Jersey Airport

Current Time: Apr 1, 2015 at 5:45:42 AM

Latest Report: Apr 1, 2015 at 5:20 AM


Visibility: N/A

Pressure: 30.36 "Hg

Humidity: 71%

Dew point: 36 °F

Location of Saint HelierLocation

Historic Weather in Saint Helier — Graph

°F

Saint Helier temperature yesterday

Maximum temperature yesterday: 52 °F (at 11:20 AM)
Minimum temperature yesterday: 46 °F (at 9:20 PM)
Average temperature yesterday: 50 °F

Past Weeks' High & Low Weather Summary

 TemperatureHumidityPressure
High55 °F (Mar 28, 11:20 AM)100% (Mar 17, 6:50 AM)30.45 "Hg (Mar 17, 6:50 AM)
Low34 °F (Mar 23, 4:50 AM)54% (Mar 23, 1:50 PM)29.65 "Hg (Mar 26, 5:50 AM)
Average47 °F85%30.09 "Hg
* Reported Mar 17 3:50 AM — Apr 1 4:20 AM, Saint Helier, Weather by CustomWeather, © 2015

Note: Actual official high and low records may vary slightly from our data, if they occured in-between our weather recording intervals... More about our weather records

Advertising

Saint Helier weather history for previous 24 hours

 ConditionsComfort  
Time TempWeatherWind HumidityBarometerVisibility
4:20 AM
Wed, Apr 1
45 °FPassing clouds.16 mph71%30.36 "HgN/A
3:50 AM45 °FPassing clouds.23 mph71%30.33 "HgN/A
9:20 PM
Tue, Mar 31
46 °FPassing clouds.23 mph82%30.24 "HgN/A
8:50 PM48 °FPassing clouds.24 mph82%30.24 "HgN/A
8:20 PM48 °FPassing clouds.24 mph82%30.24 "HgN/A
7:50 PM48 °FPassing clouds.22 mph76%30.21 "HgN/A
7:20 PM48 °FScattered clouds.25 mph82%30.21 "HgN/A
6:50 PM48 °FPassing clouds.21 mph82%30.21 "HgN/A
6:20 PM50 °FScattered clouds.25 mph76%30.21 "HgN/A
5:50 PM50 °FPassing clouds.23 mph82%30.18 "HgN/A
5:20 PM50 °FPassing clouds.26 mph82%30.18 "HgN/A
4:50 PM52 °FPassing clouds.24 mph77%30.18 "HgN/A
4:20 PM52 °FPassing clouds.24 mph77%30.15 "HgN/A
3:50 PM52 °FPassing clouds.22 mph77%30.15 "HgN/A
3:20 PM52 °FPassing clouds.24 mph77%30.15 "HgN/A
2:50 PM52 °FScattered clouds.25 mph82%30.15 "HgN/A
2:20 PM52 °FPassing clouds.23 mph82%30.15 "HgN/A
1:50 PM52 °FPassing clouds.22 mph82%30.12 "HgN/A
1:20 PM52 °FPassing clouds.21 mph82%30.12 "HgN/A
12:50 PM52 °FPassing clouds.26 mph77%30.12 "HgN/A
12:20 PM52 °FPassing clouds.22 mph82%30.09 "HgN/A
11:50 AM52 °FPassing clouds.29 mph77%30.09 "HgN/A
11:20 AM52 °FPassing clouds.24 mph77%30.07 "HgN/A
10:50 AM50 °FPassing clouds.26 mph82%30.04 "HgN/A
10:20 AM50 °FPassing clouds.31 mph76%30.04 "HgN/A
9:50 AM50 °FScattered clouds.29 mph82%30.01 "HgN/A
9:20 AM50 °FPassing clouds.24 mph82%29.98 "HgN/A
8:50 AM50 °FPassing clouds.26 mph76%29.98 "Hg6 mi
8:20 AM50 °FPassing clouds.31 mph76%29.95 "HgN/A
7:50 AM48 °FScattered clouds.36 mph82%29.92 "Hg5 mi
7:20 AM50 °FPassing clouds.35 mph82%29.92 "Hg5 mi
6:50 AM50 °FPartly cloudy.28 mph88%29.89 "Hg5 mi
6:20 AM50 °FPartly cloudy.31 mph88%29.89 "HgN/A
5:50 AM50 °FPassing clouds.31 mph94%29.86 "HgN/A
5:20 AM50 °FPassing clouds.28 mph94%29.86 "HgN/A
Weather by CustomWeather, © 2015

See weather overviewHow to use our weather pages